�������l�o���
Date,Time,MP-1(��Sv/h),MP-2(��Sv/h),MP-3(��Sv/h),MP-4(��Sv/h),MP-5(��Sv/h),MP-6(��Sv/h),MP-7(��Sv/h),MP-8(��Sv/h),����,����(m/s),���J
2018/09/26,00:00,0.764,1.136,0.805,1.425,1.019,0.452,0.790,0.755,�k��,8.0,��
2018/09/26,00:10,0.762,1.136,0.805,1.426,1.021,0.451,0.791,0.754,�k��,8.0,��
2018/09/26,00:20,0.763,1.136,0.804,1.428,1.019,0.451,0.791,0.755,�k��,7.8,��
2018/09/26,00:30,0.765,1.138,0.806,1.427,1.019,0.453,0.792,0.755,�k��,7.5,��
2018/09/26,00:40,0.764,1.138,0.804,1.426,1.021,0.453,0.790,0.754,�k��,6.5,�L
2018/09/26,00:50,0.764,1.138,0.806,1.425,1.021,0.452,0.790,0.756,�k��,7.2,�L
2018/09/26,01:00,0.766,1.139,0.804,1.428,1.021,0.455,0.791,0.756,�k��,6.2,�L
2018/09/26,01:10,0.766,1.140,0.806,1.427,1.024,0.454,0.793,0.755,�k��,6.8,�L
2018/09/26,01:20,0.768,1.137,0.806,1.429,1.022,0.453,0.792,0.755,�k��,5.7,�L
2018/09/26,01:30,0.764,1.138,0.806,1.429,1.022,0.455,0.791,0.757,�k��,5.3,�L
2018/09/26,01:40,0.767,1.140,0.808,1.428,1.023,0.455,0.791,0.755,�k�k��,4.7,�L
2018/09/26,01:50,0.765,1.138,0.807,1.433,1.023,0.454,0.792,0.755,�k�k��,5.1,�L
2018/09/26,02:00,0.766,1.138,0.806,1.429,1.023,0.452,0.792,0.754,�k�k��,4.5,��
2018/09/26,02:10,0.764,1.142,0.805,1.432,1.025,0.453,0.792,0.756,�k�k��,4.4,�L
2018/09/26,02:20,0.766,1.140,0.808,1.430,1.023,0.453,0.793,0.755,�k�k��,4.4,�L
2018/09/26,02:30,0.766,1.141,0.804,1.431,1.025,0.454,0.793,0.755,�k�k��,4.4,�L
2018/09/26,02:40,0.764,1.139,0.806,1.430,1.022,0.454,0.793,0.756,�k��,4.1,�L
2018/09/26,02:50,0.766,1.140,0.806,1.430,1.025,0.455,0.795,0.755,�k�k��,4.9,�L
2018/09/26,03:00,0.764,1.139,0.806,1.432,1.024,0.455,0.794,0.756,�k�k��,4.2,�L
2018/09/26,03:10,0.765,1.140,0.809,1.431,1.024,0.454,0.794,0.755,�k�k��,5.0,�L
2018/09/26,03:20,0.764,1.141,0.807,1.431,1.027,0.454,0.795,0.754,�k�k��,5.5,��
2018/09/26,03:30,0.764,1.141,0.804,1.434,1.025,0.454,0.792,0.757,�k�k��,5.6,��
2018/09/26,03:40,0.764,1.141,0.806,1.431,1.022,0.454,0.795,0.755,�k�k��,5.7,��
2018/09/26,03:50,0.766,1.139,0.806,1.431,1.026,0.454,0.794,0.755,�k�k��,5.1,��
2018/09/26,04:00,0.766,1.140,0.807,1.433,1.026,0.454,0.794,0.757,�k�k��,4.8,��
2018/09/26,04:10,0.767,1.139,0.807,1.431,1.025,0.454,0.792,0.755,�k�k��,5.6,��
2018/09/26,04:20,0.764,1.142,0.808,1.432,1.026,0.454,0.795,0.756,�k�k��,6.1,��
2018/09/26,04:30,0.765,1.143,0.807,1.433,1.025,0.454,0.793,0.756,�k�k��,6.9,��
2018/09/26,04:40,0.766,1.141,0.807,1.432,1.024,0.455,0.793,0.755,�k�k��,6.6,��
2018/09/26,04:50,0.766,1.141,0.808,1.432,1.025,0.455,0.793,0.757,�k�k��,6.5,��
2018/09/26,05:00,0.766,1.140,0.807,1.432,1.023,0.453,0.793,0.755,�k�k��,6.1,��
2018/09/26,05:10,0.765,1.143,0.807,1.431,1.024,0.454,0.794,0.757,�k�k��,6.2,��
2018/09/26,05:20,0.764,1.140,0.809,1.431,1.025,0.455,0.793,0.754,�k�k��,6.0,��
2018/09/26,05:30,0.765,1.143,0.808,1.431,1.026,0.453,0.792,0.756,�k�k��,6.1,��
2018/09/26,05:40,0.767,1.141,0.809,1.434,1.026,0.453,0.795,0.755,�k�k��,5.0,��
2018/09/26,05:50,0.767,1.145,0.807,1.432,1.025,0.453,0.793,0.757,�k�k��,5.8,��
2018/09/26,06:00,0.767,1.143,0.807,1.433,1.026,0.454,0.794,0.755,�k�k��,6.0,��
2018/09/26,06:10,0.767,1.143,0.808,1.433,1.029,0.455,0.794,0.756,�k�k��,6.7,��
2018/09/26,06:20,0.766,1.144,0.808,1.433,1.026,0.454,0.792,0.756,�k�k��,7.2,��
2018/09/26,06:30,0.766,1.144,0.808,1.434,1.028,0.454,0.794,0.757,�k�k��,6.9,��
2018/09/26,06:40,0.767,1.144,0.810,1.434,1.028,0.454,0.793,0.756,�k�k��,7.5,��
2018/09/26,06:50,0.767,1.145,0.808,1.431,1.029,0.454,0.792,0.757,�k�k��,7.8,��
2018/09/26,07:00,0.767,1.143,0.809,1.433,1.024,0.453,0.793,0.757,�k�k��,7.1,��
2018/09/26,07:10,0.769,1.145,0.808,1.434,1.029,0.455,0.793,0.757,�k�k��,7.6,��
2018/09/26,07:20,0.768,1.143,0.807,1.437,1.029,0.454,0.792,0.757,�k�k��,6.8,��
2018/09/26,07:30,0.768,1.144,0.808,1.434,1.027,0.453,0.793,0.755,�k�k��,7.4,��
2018/09/26,07:40,0.765,1.146,0.810,1.436,1.027,0.452,0.794,0.754,�k�k��,7.2,��
2018/09/26,07:50,0.768,1.147,0.807,1.436,1.029,0.453,0.794,0.755,�k�k��,7.2,��
2018/09/26,08:00,0.768,1.147,0.809,1.437,1.030,0.454,0.793,0.757,�k�k��,7.8,�L
2018/09/26,08:10,0.767,1.147,0.810,1.435,1.028,0.453,0.793,0.756,�k�k��,8.2,��
2018/09/26,08:20,0.767,1.148,0.807,1.438,1.028,0.452,0.794,0.757,�k�k��,6.8,��
2018/09/26,08:30,0.769,1.148,0.809,1.437,1.030,0.452,0.794,0.755,�k�k��,7.0,��
2018/09/26,08:40,0.768,1.147,0.807,1.440,1.031,0.453,0.795,0.756,�k�k��,6.4,��
2018/09/26,08:50,0.767,1.146,0.808,1.438,1.030,0.453,0.793,0.756,�k�k��,6.0,��
2018/09/26,09:00,0.767,1.147,0.809,1.436,1.027,0.454,0.792,0.756,�k�k��,6.4,��
2018/09/26,09:10,0.766,1.146,0.808,1.436,1.027,0.451,0.794,0.756,�k�k��,6.0,��
2018/09/26,09:20,0.765,1.142,0.807,1.436,1.027,0.452,0.795,0.757,�k�k��,6.7,��
2018/09/26,09:30,0.766,1.145,0.805,1.439,1.029,0.452,0.794,0.756,�k�k��,4.5,��
2018/09/26,09:40,0.765,1.148,0.809,1.436,1.027,0.451,0.795,0.755,�k�k��,5.2,��
2018/09/26,09:50,0.766,1.148,0.809,1.442,1.031,0.453,0.795,0.756,�k�k��,5.9,��
2018/09/26,10:00,0.768,1.147,0.808,1.440,1.031,0.452,0.795,0.755,�k�k��,5.4,��
2018/09/26,10:10,0.765,1.146,0.808,1.439,1.029,0.453,0.795,0.756,�k�k��,5.7,��
2018/09/26,10:20,0.764,1.147,0.808,1.437,1.030,0.454,0.796,0.753,�k�k��,6.4,��
2018/09/26,10:30,0.765,1.148,0.808,1.438,1.033,0.452,0.798,0.756,�k�k��,5.5,��
2018/09/26,10:40,0.766,1.146,0.808,1.443,1.031,0.452,0.800,0.755,�k,6.0,��
2018/09/26,10:50,0.767,1.148,0.809,1.440,1.029,0.453,0.797,0.756,�k�k��,5.8,��
2018/09/26,11:00,0.767,1.147,0.807,1.440,1.031,0.453,0.797,0.756,�k�k��,5.7,��
2018/09/26,11:10,0.770,1.149,0.808,1.441,1.032,0.454,0.797,0.755,�k,4.3,��
2018/09/26,11:20,0.768,1.148,0.810,1.444,1.031,0.452,0.798,0.756,�k,4.9,��
2018/09/26,11:30,0.768,1.148,0.808,1.442,1.034,0.453,0.797,0.756,�k,5.5,��
2018/09/26,11:40,0.767,1.149,0.808,1.439,1.032,0.453,0.797,0.756,�k,5.4,��
2018/09/26,11:50,0.768,1.152,0.808,1.441,1.030,0.453,0.798,0.756,�k,5.7,��
2018/09/26,12:00,0.769,1.152,0.809,1.442,1.032,0.453,0.798,0.756,�k,5.8,��
2018/09/26,12:10,0.770,1.152,0.809,1.441,1.034,0.454,0.798,0.757,�k,5.8,��
2018/09/26,12:20,0.771,1.152,0.810,1.443,1.033,0.454,0.798,0.756,�k,6.3,��
2018/09/26,12:30,0.767,1.151,0.810,1.440,1.036,0.452,0.797,0.757,�k�k��,5.7,��
2018/09/26,12:40,0.770,1.153,0.811,1.442,1.036,0.455,0.798,0.757,�k�k��,6.6,��
2018/09/26,12:50,0.771,1.152,0.810,1.442,1.035,0.454,0.798,0.757,�k�k��,5.8,��
2018/09/26,13:00,0.769,1.150,0.812,1.446,1.035,0.454,0.799,0.758,�k�k��,7.0,��
2018/09/26,13:10,0.770,1.152,0.813,1.444,1.036,0.455,0.797,0.756,�k�k��,6.5,��
2018/09/26,13:20,0.769,1.155,0.810,1.442,1.036,0.454,0.800,0.757,�k�k��,6.5,��
2018/09/26,13:30,0.771,1.154,0.811,1.444,1.036,0.453,0.798,0.758,�k�k��,6.5,��
2018/09/26,13:40,0.770,1.154,0.811,1.440,1.036,0.454,0.798,0.756,�k�k��,6.9,��
2018/09/26,13:50,0.770,1.156,0.812,1.443,1.036,0.454,0.798,0.758,�k�k��,7.7,��
2018/09/26,14:00,0.771,1.156,0.812,1.441,1.035,0.454,0.799,0.760,�k�k��,8.7,��
2018/09/26,14:10,0.772,1.155,0.813,1.444,1.039,0.455,0.799,0.757,�k�k��,7.8,��
2018/09/26,14:20,0.772,1.156,0.814,1.447,1.040,0.454,0.799,0.759,�k�k��,7.6,��
2018/09/26,14:30,0.771,1.154,0.813,1.445,1.038,0.454,0.798,0.758,�k�k��,7.3,��
2018/09/26,14:40,0.773,1.157,0.811,1.447,1.036,0.453,0.800,0.759,�k�k��,7.3,��
2018/09/26,14:50,0.772,1.156,0.813,1.446,1.040,0.454,0.798,0.758,�k�k��,7.8,��
2018/09/26,15:00,0.772,1.154,0.813,1.447,1.039,0.455,0.799,0.758,�k�k��,7.2,��
2018/09/26,15:10,0.773,1.155,0.812,1.447,1.039,0.456,0.799,0.758,�k�k��,8.1,��
2018/09/26,15:20,0.774,1.156,0.812,1.447,1.039,0.453,0.797,0.758,�k�k��,6.9,��
2018/09/26,15:30,0.772,1.157,0.813,1.446,1.038,0.454,0.800,0.757,�k�k��,7.4,��
2018/09/26,15:40,0.771,1.158,0.811,1.447,1.041,0.454,0.798,0.757,�k�k��,6.9,��
2018/09/26,15:50,0.773,1.156,0.812,1.446,1.040,0.454,0.799,0.758,�k��,7.3,��
2018/09/26,16:00,0.772,1.157,0.810,1.449,1.039,0.454,0.799,0.759,�k�k��,7.4,��
2018/09/26,16:10,0.772,1.157,0.813,1.447,1.040,0.455,0.798,0.758,�k�k��,6.5,��
2018/09/26,16:20,0.771,1.161,0.813,1.448,1.041,0.455,0.798,0.756,�k��,6.1,��
2018/09/26,16:30,0.772,1.159,0.814,1.450,1.041,0.455,0.799,0.759,�k��,5.3,��
2018/09/26,16:40,0.771,1.157,0.812,1.447,1.040,0.456,0.799,0.759,�k�k��,5.6,��
2018/09/26,16:50,0.774,1.159,0.814,1.449,1.042,0.455,0.799,0.758,�k��,5.4,��
2018/09/26,17:00,0.771,1.159,0.815,1.450,1.041,0.455,0.796,0.760,�k�k��,5.2,��
2018/09/26,17:10,0.774,1.161,0.816,1.448,1.042,0.456,0.797,0.759,�k��,5.3,��
2018/09/26,17:20,0.773,1.161,0.815,1.448,1.042,0.455,0.799,0.760,�k��,5.5,��
2018/09/26,17:30,0.774,1.162,0.816,1.452,1.043,0.456,0.799,0.761,�k��,5.9,��
2018/09/26,17:40,0.776,1.165,0.815,1.447,1.044,0.458,0.799,0.762,���k��,6.3,��
2018/09/26,17:50,0.775,1.164,0.817,1.450,1.045,0.458,0.799,0.761,���k��,6.0,��
2018/09/26,18:00,0.774,1.165,0.818,1.450,1.044,0.458,0.800,0.760,���k��,5.8,��
2018/09/26,18:10,0.774,1.163,0.818,1.450,1.043,0.458,0.800,0.761,���k��,6.6,��
2018/09/26,18:20,0.774,1.165,0.818,1.452,1.043,0.457,0.800,0.762,�k��,7.0,��
2018/09/26,18:30,0.772,1.162,0.816,1.449,1.042,0.457,0.799,0.761,�k��,6.0,��
2018/09/26,18:40,0.774,1.164,0.818,1.451,1.042,0.456,0.801,0.760,�k��,6.3,��
2018/09/26,18:50,0.772,1.160,0.814,1.446,1.042,0.457,0.800,0.761,�k��,5.5,��
2018/09/26,19:00,0.773,1.160,0.817,1.449,1.043,0.457,0.797,0.761,�k�k��,5.1,��
2018/09/26,19:10,0.774,1.164,0.816,1.450,1.043,0.456,0.799,0.760,�k��,4.9,��
2018/09/26,19:20,0.774,1.164,0.817,1.451,1.042,0.457,0.798,0.762,�k��,5.8,��
2018/09/26,19:30,0.772,1.162,0.819,1.447,1.046,0.456,0.800,0.763,�k��,5.6,��
2018/09/26,19:40,0.774,1.164,0.818,1.450,1.044,0.458,0.799,0.760,�k��,6.0,��
2018/09/26,19:50,0.774,1.163,0.817,1.452,1.044,0.457,0.800,0.762,�k��,5.9,��
2018/09/26,20:00,0.776,1.162,0.816,1.451,1.044,0.457,0.800,0.760,�k��,5.8,��
2018/09/26,20:10,0.774,1.163,0.816,1.450,1.044,0.458,0.798,0.762,�k��,5.5,��
2018/09/26,20:20,0.774,1.163,0.816,1.448,1.044,0.457,0.801,0.761,�k�k��,5.8,��
2018/09/26,20:30,0.774,1.163,0.817,1.451,1.045,0.457,0.798,0.760,�k�k��,3.8,��
2018/09/26,20:40,0.775,1.162,0.819,1.449,1.045,0.458,0.798,0.759,�k��,5.0,��
2018/09/26,20:50,0.775,1.162,0.818,1.449,1.045,0.457,0.799,0.762,�k��,6.3,��
2018/09/26,21:00,0.774,1.162,0.817,1.451,1.046,0.458,0.800,0.760,�k��,5.6,��
2018/09/26,21:10,0.776,1.163,0.818,1.452,1.045,0.457,0.799,0.762,�k��,6.3,��
2018/09/26,21:20,0.776,1.162,0.816,1.450,1.049,0.458,0.799,0.759,�k��,6.5,��
2018/09/26,21:30,0.776,1.162,0.817,1.452,1.044,0.458,0.799,0.760,�k��,6.3,��
2018/09/26,21:40,0.775,1.162,0.817,1.449,1.044,0.458,0.800,0.762,�k��,6.0,��
2018/09/26,21:50,0.776,1.163,0.817,1.452,1.043,0.456,0.799,0.763,�k��,5.9,��
2018/09/26,22:00,0.776,1.167,0.818,1.453,1.046,0.458,0.801,0.760,�k��,6.5,��
2018/09/26,22:10,0.775,1.164,0.817,1.451,1.046,0.458,0.800,0.762,�k��,6.8,��
2018/09/26,22:20,0.773,1.165,0.817,1.449,1.045,0.457,0.798,0.762,�k�k��,7.1,��
2018/09/26,22:30,0.775,1.165,0.817,1.452,1.043,0.458,0.800,0.761,�k�k��,7.0,��
2018/09/26,22:40,0.775,1.162,0.819,1.451,1.045,0.458,0.801,0.763,�k��,6.3,�L
2018/09/26,22:50,0.773,1.163,0.817,1.451,1.045,0.458,0.800,0.762,�k�k��,6.8,�L
2018/09/26,23:00,0.776,1.165,0.815,1.451,1.047,0.458,0.801,0.762,�k��,7.3,�L
2018/09/26,23:10,0.776,1.165,0.818,1.454,1.045,0.458,0.799,0.762,�k��,7.6,��
2018/09/26,23:20,0.775,1.166,0.819,1.449,1.046,0.458,0.799,0.760,�k�k��,6.8,��
2018/09/26,23:30,0.777,1.164,0.818,1.452,1.045,0.457,0.801,0.764,�k��,7.5,��
2018/09/26,23:40,0.775,1.164,0.818,1.451,1.043,0.457,0.799,0.763,�k�k��,6.9,��
2018/09/26,23:50,0.775,1.163,0.816,1.451,1.044,0.458,0.800,0.762,�k��,8.7,�L
